Weather History for KGUY - April, 2012

Change the Weather History Date:

Tuesday, April 24, 2012

  Actual Average Record
Temperature  
Mean Temperature 73 °F 58 °F  
Max Temperature 97 °F 73 °F 97 °F (2012)
Min Temperature 49 °F 43 °F 19 °F (2013)
Degree Days  
Heating Degree Days 0 8  
Month to date heating degree days 145 266  
Since 1 July heating degree days 3743 4314  
Cooling Degree Days 8 1  
Month to date cooling degree days 20 4  
Year to date cooling degree days 47 6  
Growing Degree Days 24 (Base 50)    
Moisture  
Dew Point 41 °F    
Average Humidity 43    
Maximum Humidity 71    
Minimum Humidity 14    
Precipitation  
Precipitation 0.00 in 0.05 in 0.42 in (1999)
Month to date precipitation 1.05 1.20  
Year to date precipitation 2.75 3.50  
Snow  
Snow 0.00 in - - ()
Month to date snowfall 0.0  
Since 1 July snowfall 9.1  
Snow Depth 0.00 in    
Sea Level Pressure  
Sea Level Pressure 29.72 in    
Wind  
Wind Speed 12 mph (SW)    
Max Wind Speed 28 mph    
Max Gust Speed 35 mph    
Visibility 10 miles    
Events      
T = Trace of Precipitation, MM = Missing Value Source: NWS Daily Summary

Daily Weather History Graph

Daily Weather History Graph

Search for Another Location

Airport or City:

Trip Planner

Search our weather history database for the weather conditions in past years. The results will help you decide how hot, cold, wet, or windy it might be!

Date:

Astronomy

Apr. 24, 2012 Rise Set
Actual Time 6:59 AM CDT 8:28 PM CDT
Civil Twilight 6:32 AM CDT 8:56 PM CDT
Nautical Twilight 5:59 AM CDT 9:28 PM CDT
Astronomical Twilight 5:25 AM CDT 10:03 PM CDT
Moon 9:00 AM CDT (4/24) 11:46 PM CDT (4/24)
Length of Visible Light 14h 23m
Length of Day
13h 28m
Waxing Crescent, 10% of the Moon is Illuminated
Apr 24
Waxing Crescent
Apr 29
First Quarter
May 5
Full
May 12
Last Quarter
May 20
New

Hourly Weather History & Observations

Time (CDT) Temp. Dew Point Humidity Pressure Visibility Wind Dir Wind Speed Gust Speed Precip Events Conditions
12:53 AM 55.9 °F 42.1 °F 60% 29.90 in 10.0 mi SSW 6.9 mph - N/A   Clear
1:53 AM 54.0 °F 42.1 °F 64% 29.89 in 10.0 mi SW 8.1 mph - N/A   Clear
2:53 AM 52.0 °F 42.1 °F 69% 29.87 in 10.0 mi SSW 5.8 mph - N/A   Clear
3:53 AM 52.0 °F 42.1 °F 69% 29.85 in 10.0 mi SSW 4.6 mph - N/A   Clear
4:53 AM 51.1 °F 41.0 °F 68% 29.84 in 10.0 mi SW 5.8 mph - N/A   Clear
5:53 AM 53.1 °F 41.0 °F 64% 29.83 in 10.0 mi WSW 6.9 mph - N/A   Clear
6:53 AM 53.1 °F 39.9 °F 61% 29.82 in 10.0 mi WSW 6.9 mph - N/A   Clear
7:53 AM 57.9 °F 42.1 °F 56% 29.82 in 10.0 mi WSW 6.9 mph - N/A   Clear
8:53 AM 66.9 °F 43.0 °F 42% 29.81 in 10.0 mi WSW 12.7 mph - N/A   Clear
9:53 AM 75.0 °F 43.0 °F 32% 29.80 in 10.0 mi WSW 17.3 mph - N/A   Clear
10:53 AM 82.0 °F 42.1 °F 24% 29.77 in 10.0 mi WSW 20.7 mph - N/A   Clear
11:53 AM 87.1 °F 41.0 °F 20% 29.75 in 10.0 mi SW 20.7 mph 27.6 mph N/A   Clear
12:53 PM 91.0 °F 39.9 °F 17% 29.73 in 10.0 mi SW 20.7 mph 32.2 mph N/A   Clear
1:53 PM 93.0 °F 41.0 °F 16% 29.69 in 10.0 mi SW 21.9 mph 29.9 mph N/A   Clear
2:53 PM 95.0 °F 39.9 °F 15% 29.65 in 10.0 mi SW 21.9 mph 29.9 mph N/A   Clear
3:53 PM 96.1 °F 39.0 °F 14% 29.62 in 10.0 mi SW 15.0 mph 24.2 mph N/A   Clear
4:53 PM 93.0 °F 37.0 °F 14% 29.61 in 10.0 mi SW 10.4 mph - N/A   Clear
5:53 PM 93.9 °F 39.9 °F 15% 29.58 in 10.0 mi SSW 17.3 mph 24.2 mph N/A   Clear
6:53 PM 91.9 °F 37.0 °F 15% 29.58 in 10.0 mi WSW 13.8 mph - N/A   Clear
7:53 PM 81.0 °F 42.1 °F 25% 29.59 in 10.0 mi SW 8.1 mph - N/A   Clear
8:53 PM 78.1 °F 39.9 °F 25% 29.59 in 10.0 mi Calm Calm - N/A   Clear
9:53 PM 75.9 °F 39.9 °F 27% 29.59 in 10.0 mi West 5.8 mph - N/A   Clear
10:53 PM 71.1 °F 39.9 °F 32% 29.60 in 10.0 mi WNW 9.2 mph - N/A   Clear
11:53 PM 66.9 °F 37.9 °F 34% 29.59 in 10.0 mi WSW 9.2 mph - N/A   Clear